Location: Aranbee
(34.0885°N, 118.2342°W)
Time: 14:04:52
(UTC+00:00)

Tiros 1 - Pass Details

Date: 29 November 2020
Orbit: 630 x 663 km, 48.4° (Epoch: 21 January)

Event Time Altitude Azimuth Distance (km) Brightness Sun altitude
Rises 00:33:12 0° 278° (W) 2,989 11.6 1.1°
Reaches altitude 10° 00:36:08 10° 295° (WNW) 2,076 10.4 0.6°
Maximum altitude 00:39:38 20° 342° (NNW) 1,527 9.0 -0.1°
Drops below altitude 10° 00:43:08 10° 29° (NNE) 2,070 9.3 -0.7°
Enters shadow 00:46:00 - 47° (NE) 2,960 9.9 -1.2°
Sets 00:46:03 0° 47° (NE) 2,977 - -1.3°
